DELTA 1 DEB

Satellite information

Favourite Embed

Satellite Type and Status

DEBRISIN ORBIT

Key statistics

Satellite DELTA 1 DEB at a glance.

Uptime

19501

Days in orbit

Revolutions

≈ 14.2

Per day

Orbit

SSO

Sun Synchronous Orbit

Inclination

97.3

Latest

Satellite identification and parameters

Extended collection of information and parameters for DELTA 1 DEB.

Object identification

Identified? True

Debris? True

Object name: DELTA 1 DEB

International designator: 1972-058GN

Object number (NORAD): 8539

Object ID (CCSDS): 8539

Country: UNITED STATES OF AMERICA (US)

Current information (Y/N): Y

RCS size: SMALL

Orbital parameters

Period: 101.284 minutes

Inclination: 97.2816 deg

SMA: 7197.612 km

Apoapsis: 963.813 km

Periapsis: 675.141 km

RAAN: 31.558 deg

Eccentricy: 0.0200533

Argument of periapsis: 143.3895 deg

Mean anomaly: 218.1186 deg

Mean motion: 14.21739732 rev/day

Mean motion (dot): 0.00001221 rev/day2

B* drag term: 0.00046466 1/REarth

Two-line elements (TLE)

Creation date: Dec. 12, 2025, 7:16 a.m.

Reference frame: TEME

Reference center: EARTH

Epoch: Dec. 11, 2025, 9:47 p.m. UTC

TLE line 0: 0 DELTA 1 DEB

TLE line 1: 1 8539U 72058GN 25345.90816029 .00001221 00000-0 46466-3 0 9996

TLE line 2: 2 8539 97.2816 31.5580 0200533 143.3895 218.1186 14.21739732727976

Live tracking on map

Real-time ground track for satellite DELTA 1 DEB.

In-orbit conjunctions

A list of the most updated potential collisions computed for object DELTA 1 DEB.

Target Orbit TCA Probability of collision Miss distance Type
CZ-6A DEB LEO 2025-03-17 03:21:39 0.0004051433 153.0 (m) DEBRIS
COSMOS 1275 DEB LEO 2025-01-07 06:32:24 0.000222472 65.0 (m) DEBRIS
FENGYUN 1C DEB SSO 2024-11-08 14:49:39 0.0001485991 169.0 (m) DEBRIS
COSMOS 1181 LEO 2024-11-08 05:29:24 0.0003143186 894.0 (m) PAYLOAD

Associated space launch

Earth observation satellite

DELTA 1 DEB was lifted into orbit during the mission ‘Delta 0900 | Landsat 1’, on board a Delta 0900 space rocket.

The launch took place on July 23, 1972, 6:06 p.m. from Space Launch Complex 2W.

For more information about the launch, click the button.

Launch to space Delta 0900 | Landsat 1
Delta 0900 | Landsat 1

Agency: N/A

Status: Launch Successful

Launch date: July 23, 1972, 6:06 p.m. UTC

Rocket: Delta 0900

Launch pad: Space Launch Complex 2W

Location: Vandenberg SFB, CA, USA

...

Latest news about this satellite

There are no fresh news available about this satellite. Check back as we update our databases every day.


Newsletter sign-up

Weekly statistics, charts and insights to help you stay on top of the space industry.